sat.trackr.live / text

‹ back to catalog

STARLINK-3154

NORAD 49417 · 2021-104K

PAYLOAD ACTIVE UNKNOWN

§ Identity

Operator
Country
US
Launch date
2021-11-13
Launch site
AFETR
Launch vehicle
Mass (kg)
RCS (m²)

Purposes: comms

External: N2YO · Heavens-Above · Gunter

§ Orbital elements

Epoch: 2026-09-20T03:04:06.138048Z

Period
93.85 min
Inclination
53.1616°
Eccentricity
0.0001189
Mean motion
15.34373197 rev/d
Perigee alt
462.0 km
Apogee alt
463.6 km
Semi-major
6,840.9 km
B*
-5.4796e-5
RAAN
53.8084°
Arg perigee
86.0894°
Mean anomaly
274.0245°
Rev number
26,828

§ Raw data

STARLINK-31541 49417U 21104K   26263.12784882 -.00002225  00000+0 -54796-4 0  99992 49417  53.1616  53.8084 0001189  86.0894 274.0245 15.34373197268284

JSON: /api/v1/satellites/49417 · /tle

For live sub-satellite position, see the globe view (requires WebGL).

§ Visibility from observer

Set your observer location to see the next 7 days of passes ≥ 10°. The values pass through the URL so the page stays shareable.

No JS? Fill the form by hand. The geolocation button needs JavaScript.